Temperature
7 7 7 8 8 8 8 8 8 8 8 8 8 8 8 9 8 8 8 8 8 8 7 7 7 6 6 6 5 4 4 4 3 2 2 1 1 1
7 7 7 8 8 8 8 8 8 8 8 8 8 8 8 8 8 8 8 8 8 7 7 7 6 6 6 5 5 4 4 3 3 2 1 1 1 1
7 7 7 7 7 8 8 8 8 8 8 8 8 8 8 8 8 8 8 7 7 7 7 6 6 6 5 5 4 4 3 3 2 2 1 1 0 0
7 7 7 7 7 7 7 8 8 8 8 8 8 8 8 8 8 7 7 7 7 7 6 6 6 5 5 4 4 3 3 2 2 1 1 0 0 -0
6 7 7 7 7 7 7 7 8 8 8 8 8 8 8 7 7 7 7 6 6 6 6 5 5 5 4 4 3 3 2 2 1 1 0 0 -0 -0
6 6 7 7 7 7 7 7 8 8 8 8 8 7 7 7 7 7 6 6 6 6 5 5 5 4 4 3 3 3 2 2 1 1 0 -0 -0 -1
6 6 7 7 7 7 7 7 8 8 8 8 7 7 7 7 7 7 6 6 5 5 5 4 4 4 3 3 3 2 2 1 1 0 -0 -0 -1 -1
6 6 6 6 7 7 7 7 8 8 7 8 8 7 7 7 7 6 6 5 5 5 4 4 3 3 3 2 2 2 1 1 0 0 -0 -1 -1 -1
6 6 6 6 6 6 7 7 7 7 8 8 8 7 7 7 7 6 6 6 5 5 4 3 3 2 2 2 2 1 1 0 0 -0 -1 -1 -1 -2
6 6 6 6 6 6 7 7 7 7 7 7 7 7 7 7 7 6 6 6 5 4 4 3 3 2 2 1 1 1 0 0 -0 -0 -1 -1 -1 -1
5 5 6 6 6 6 6 6 7 7 7 7 7 7 7 7 6 6 5 5 4 4 3 3 2 2 1 1 1 0 0 -0 -0 -1 -1 -1 -1 -2
5 5 5 6 6 6 6 6 6 6 6 6 6 6 6 6 6 5 5 5 5 4 3 3 2 1 1 0 0 0 -0 -0 -1 -1 -1 -1 -2 -2
5 5 5 6 6 6 6 6 6 6 6 6 6 6 5 5 5 5 5 5 5 4 3 3 2 1 1 0 -0 -0 -1 -1 -1 -1 -1 -1 -2 -2
5 5 5 5 6 6 6 6 6 6 6 6 5 5 5 5 5 4 4 4 4 4 3 3 2 1 1 -0 -0 -0 -1 -1 -1 -1 -2 -2 -2 -2
4 5 5 5 5 5 5 5 6 5 5 5 5 5 5 4 4 4 3 3 3 3 2 2 1 1 1 0 -0 -1 -1 -1 -1 -2 -2 -2 -2 -2
4 4 5 5 5 5 5 5 5 5 5 5 5 4 4 4 3 3 3 3 2 2 1 1 1 1 0 -0 -1 -1 -2 -2 -2 -2 -2 -2 -2 -3
4 4 4 4 4 4 4 4 4 4 4 4 4 4 3 3 3 3 3 2 2 1 1 1 0 0 -0 -0 -1 -1 -2 -2 -2 -2 -2 -2 -3 -3
4 4 4 4 4 4 4 4 4 4 4 4 4 3 3 3 3 2 2 1 1 1 1 0 0 -0 -1 -1 -1 -2 -2 -2 -2 -2 -3 -3 -3 -3
4 3 3 3 3 4 4 4 4 3 4 4 3 3 3 3 2 2 1 1 1 1 0 0 -0 -0 -1 -2 -2 -2 -2 -2 -2 -2 -3 -3 -3 -3
3 3 3 3 3 3 3 3 3 3 3 3 3 3 3 2 2 1 1 1 1 0 0 -0 -0 -1 -1 -1 -2 -2 -2 -2 -3 -3 -3 -3 -3 -3
3 3 3 3 3 3 3 3 3 3 3 3 3 3 2 2 2 1 1 1 1 0 -0 -1 -1 -1 -1 -1 -2 -2 -3 -3 -3 -3 -3 -3 -3 -3
3 3 3 3 3 3 3 3 3 3 3 3 3 2 2 2 1 1 1 0 0 0 -0 -1 -1 -1 -1 -2 -2 -3 -3 -3 -3 -3 -3 -4 -4 -4
2 2 3 3 3 3 3 3 3 3 3 2 2 2 2 1 1 1 0 0 -0 -0 -1 -1 -2 -2 -2 -2 -2 -3 -3 -3 -3 -3 -4 -4 -4 -4
Wind_Speed
13 14 11 10 9 9 8 9 8 7 8 7 6 9 9 9 10 11 10 12 13 11 10 9 7 6 5 4 4 5 5 6 7 9 11 12 14 15
11 14 12 10 10 9 8 9 9 8 6 6 5 7 9 7 10 10 9 11 12 11 10 9 8 6 5 4 3 4 4 6 7 9 11 12 13 15
12 13 13 12 10 9 9 9 8 8 7 5 4 6 9 9 8 8 9 9 8 10 10 10 8 7 5 4 3 3 4 6 7 9 10 12 13 14
14 14 13 11 12 10 9 10 9 8 7 7 5 6 8 9 8 8 7 6 7 9 10 9 8 7 6 4 3 3 4 5 7 8 10 11 13 14
13 14 14 13 12 10 11 9 8 7 7 7 6 5 5 7 8 6 6 5 5 7 8 9 8 7 6 5 3 2 3 5 6 8 9 11 12 13
12 14 14 14 13 13 11 10 8 8 8 7 6 6 6 6 7 6 6 5 4 5 5 6 7 7 7 5 3 3 3 4 6 8 9 10 11 12
11 12 13 13 13 12 10 10 9 8 7 8 7 6 6 7 7 6 6 5 4 3 4 4 4 4 4 4 3 3 3 4 6 7 9 10 11 11
11 11 10 11 11 11 12 11 11 11 10 9 7 9 9 9 8 8 7 6 4 4 4 3 3 3 2 2 2 2 3 4 5 7 8 9 10 11
10 9 8 9 10 9 9 9 9 10 12 11 10 10 10 10 10 10 9 7 4 5 4 3 3 2 2 2 2 2 2 3 5 6 7 8 9 10
10 10 10 9 10 9 9 7 7 6 8 7 8 8 8 10 10 9 9 7 5 4 3 2 2 2 2 2 3 2 2 3 4 6 7 8 9 10
8 9 10 10 11 11 9 8 7 4 4 7 7 7 9 11 11 9 9 7 4 3 2 2 2 1 1 2 2 2 2 3 4 5 6 8 9 9
6 7 10 11 12 11 10 10 10 7 7 7 7 8 8 10 10 7 8 7 5 4 3 3 3 2 1 1 1 1 1 2 3 4 6 8 9 6
6 6 6 11 11 10 9 9 11 9 8 8 7 6 6 6 5 4 3 4 5 3 5 4 3 2 2 1 1 1 1 2 2 3 4 7 7 6
7 6 6 10 9 9 8 10 13 10 7 7 7 6 6 5 5 6 6 6 5 5 7 5 3 3 2 1 1 0 1 1 2 3 4 5 5 5
5 7 8 10 8 7 10 13 11 8 8 8 7 6 5 7 7 7 8 9 9 8 5 4 4 4 3 2 1 0 1 1 2 3 4 4 4 3
5 7 9 9 8 8 8 8 6 6 7 7 7 6 6 7 7 7 7 7 6 5 5 5 4 3 2 2 2 1 1 1 2 3 4 4 3 3
5 4 4 5 5 5 5 5 5 6 7 7 8 8 8 8 7 6 6 5 5 5 4 3 5 5 3 2 1 1 1 1 2 3 3 3 3 3
6 5 5 6 6 6 7 6 5 6 7 8 8 8 9 9 8 7 6 6 7 6 5 4 4 3 3 2 2 0 1 2 2 3 3 3 3 3
5 6 6 6 6 6 6 7 6 6 7 8 8 9 9 9 9 8 7 7 7 6 5 4 3 3 3 2 1 1 1 2 2 2 3 3 3 4
5 6 6 6 6 6 7 7 7 6 7 8 8 9 9 10 9 9 8 8 8 7 5 3 2 2 2 2 1 1 2 1 1 2 3 3 3 4
4 5 6 6 6 6 7 7 7 7 8 8 9 10 9 10 9 9 8 10 8 7 6 4 2 3 2 2 2 2 2 3 2 1 2 2 3 3
4 4 5 6 6 7 8 8 8 7 8 8 9 9 9 9 10 10 9 9 7 7 6 4 4 3 2 3 3 2 2 3 3 3 3 3 2 2
4 4 5 6 6 7 8 9 9 8 8 9 9 10 10 9 9 9 9 8 8 8 7 6 4 3 3 3 3 3 3 3 3 4 4 6 5 4
Wind_Direction
224 222 221 220 213 211 206 205 205 210 213 208 200 194 191 191 181 189 194 190 192 195 194 196 203 209 222 243 263 283 296 305 312 315 317 318 320 321
222 219 219 217 211 208 207 213 214 212 216 205 205 188 181 182 183 190 191 180 184 188 190 192 197 202 213 226 248 275 294 305 311 314 316 318 319 320
220 217 216 212 207 206 205 211 212 208 207 205 200 181 180 180 177 182 181 184 183 186 191 193 194 196 199 213 233 261 290 307 311 314 318 320 321 321
217 213 213 209 207 204 205 209 205 203 200 195 192 182 185 181 175 175 177 179 182 181 190 191 188 188 193 200 217 256 293 306 311 316 319 321 323 322
217 212 209 204 205 204 205 205 198 196 193 185 188 177 173 169 169 169 172 174 176 178 184 187 185 185 188 192 209 252 287 300 308 314 317 321 322 321
219 213 208 204 203 204 204 200 191 188 185 179 179 172 170 165 169 174 177 177 174 176 179 183 181 182 185 190 210 242 276 296 308 313 316 319 320 320
219 214 209 204 205 206 201 194 190 190 184 180 180 175 176 172 180 176 177 164 169 177 174 180 181 184 187 192 209 240 270 295 309 314 317 320 321 321
214 211 205 198 200 200 194 194 195 195 191 187 189 187 192 185 173 170 166 167 179 176 178 180 179 180 183 197 192 233 266 298 311 316 320 322 324 324
209 204 201 197 194 196 185 186 199 198 194 191 192 196 192 185 174 173 176 173 166 160 167 174 171 185 175 179 182 223 269 302 314 319 323 326 327 325
204 200 196 198 198 188 184 188 192 198 195 192 194 192 185 176 175 172 163 136 109 132 161 167 169 187 180 188 167 215 268 307 318 324 329 330 329 325
200 198 194 196 187 175 179 179 173 168 132 136 140 142 147 152 153 144 147 147 145 152 162 158 147 161 202 209 176 206 257 308 324 331 334 333 331 325
194 196 194 191 183 178 181 178 176 171 151 130 123 117 129 140 146 158 163 162 146 152 163 155 144 149 181 197 220 247 268 309 324 329 333 333 334 326
191 195 191 172 176 179 180 184 174 162 151 143 138 135 130 132 131 119 127 154 149 142 155 152 150 157 158 167 216 271 300 325 324 322 320 330 333 332
192 191 180 167 170 172 174 162 152 149 151 146 146 149 146 140 129 114 100 85 79 111 142 144 145 156 146 149 172 270 322 321 327 330 328 327 326 328
184 169 166 161 157 160 156 153 152 156 155 153 156 156 148 139 128 115 102 94 81 79 102 117 132 143 145 150 148 147 337 321 329 330 329 328 330 330
148 138 139 142 149 153 155 155 160 161 158 156 151 144 137 137 136 134 129 121 105 88 70 80 107 126 127 126 144 150 2 325 324 330 331 329 333 334
151 145 149 153 158 159 157 155 151 150 148 147 147 146 145 142 138 136 132 127 125 130 113 85 79 81 77 94 111 103 43 345 333 337 335 334 337 338
157 164 168 169 171 169 163 157 153 154 152 151 151 152 151 146 139 134 133 132 131 130 125 120 115 108 105 66 26 91 1 341 341 340 335 329 330 339
168 174 174 173 171 169 167 163 159 155 153 152 152 151 147 144 143 143 142 136 131 130 127 128 127 122 121 103 69 345 323 335 346 345 340 329 320 326
175 176 175 173 170 171 164 156 151 149 151 150 148 147 147 147 147 147 147 143 138 133 127 123 123 126 121 121 117 19 346 329 335 341 341 338 333 318
175 175 173 172 169 165 159 155 154 154 154 149 148 148 149 148 148 146 144 141 136 135 138 134 109 102 104 106 99 71 29 16 357 329 338 342 351 0
170 171 172 169 164 161 157 156 154 154 152 149 149 149 150 149 147 146 146 145 139 134 127 117 118 115 98 101 101 86 50 30 34 33 9 352 345 347
171 167 163 161 164 161 158 158 156 156 153 149 150 149 148 146 145 145 142 138 133 131 127 124 116 99 92 99 100 91 70 47 43 41 36 22 13 359
Height
1407 1410 1413 1416 1419 1422 1425 1428 1431 1432 1436 1439 1442 1444 1448 1451 1454 1456 1458 1460 1460 1462 1462 1463 1463 1463 1462 1461 1461 1459 1457 1455 1453 1451 1448 1446 1443 1440
1400 1403 1406 1409 1413 1416 1419 1423 1426 1428 1430 1433 1436 1439 1442 1445 1448 1451 1453 1454 1455 1456 1457 1458 1459 1458 1458 1457 1456 1455 1453 1451 1449 1447 1444 1442 1439 1436
1393 1396 1399 1403 1406 1410 1413 1416 1420 1423 1424 1427 1431 1434 1437 1440 1443 1446 1448 1449 1450 1451 1452 1453 1454 1454 1453 1453 1452 1451 1449 1447 1445 1443 1440 1438 1435 1432
1386 1389 1393 1397 1400 1403 1407 1410 1414 1417 1420 1422 1426 1429 1432 1435 1438 1441 1443 1444 1445 1447 1448 1449 1449 1449 1449 1449 1448 1447 1445 1444 1442 1439 1437 1434 1431 1428
1379 1382 1386 1390 1393 1397 1401 1405 1408 1412 1415 1417 1421 1424 1427 1430 1433 1436 1438 1439 1441 1442 1444 1444 1445 1445 1445 1445 1444 1443 1441 1440 1438 1436 1433 1431 1428 1425
1373 1376 1380 1383 1387 1391 1395 1399 1402 1406 1410 1413 1416 1419 1421 1425 1428 1430 1433 1435 1437 1438 1439 1440 1440 1441 1441 1441 1440 1439 1438 1436 1435 1432 1430 1427 1425 1422
1367 1370 1374 1377 1382 1386 1390 1393 1397 1401 1404 1407 1411 1414 1416 1419 1422 1425 1428 1430 1432 1433 1434 1435 1436 1437 1437 1437 1436 1436 1435 1433 1431 1429 1427 1424 1422 1419
1360 1364 1368 1372 1376 1381 1385 1389 1393 1396 1399 1402 1405 1408 1411 1414 1417 1420 1423 1425 1427 1430 1431 1432 1433 1433 1433 1434 1433 1433 1432 1430 1428 1426 1424 1422 1419 1416
1355 1359 1362 1367 1372 1376 1380 1384 1388 1391 1395 1398 1400 1403 1406 1409 1412 1415 1418 1420 1423 1425 1427 1428 1429 1430 1430 1430 1430 1430 1429 1427 1425 1423 1421 1419 1416 1414
1350 1353 1357 1362 1367 1371 1375 1379 1383 1386 1390 1394 1397 1400 1403 1406 1408 1411 1414 1417 1419 1421 1423 1425 1425 1426 1427 1428 1428 1427 1426 1425 1423 1421 1419 1417 1414 1411
1346 1350 1353 1358 1362 1366 1371 1374 1377 1381 1385 1389 1392 1395 1398 1401 1404 1407 1409 1412 1414 1417 1419 1421 1422 1423 1424 1425 1425 1425 1424 1422 1421 1419 1417 1414 1412 1409
1342 1346 1350 1354 1358 1362 1366 1369 1372 1375 1379 1383 1387 1391 1394 1397 1400 1403 1405 1408 1410 1413 1415 1417 1419 1420 1422 1423 1422 1422 1421 1420 1419 1417 1415 1413 1410 1407
1339 1342 1346 1350 1355 1358 1362 1365 1368 1372 1376 1380 1383 1387 1391 1394 1396 1399 1402 1405 1407 1408 1411 1413 1415 1417 1418 1419 1420 1419 1419 1418 1417 1415 1413 1411 1409 1406
1335 1339 1343 1347 1351 1355 1358 1362 1365 1369 1372 1376 1380 1384 1387 1390 1393 1396 1399 1402 1405 1407 1409 1411 1412 1414 1415 1416 1417 1417 1417 1416 1415 1414 1412 1410 1408 1405
1333 1336 1340 1344 1348 1351 1355 1358 1361 1365 1369 1373 1377 1380 1384 1387 1390 1394 1397 1400 1402 1405 1407 1409 1411 1412 1413 1414 1414 1415 1415 1415 1414 1413 1411 1409 1406 1404
1331 1334 1338 1341 1345 1348 1351 1354 1358 1362 1366 1370 1373 1377 1381 1385 1388 1391 1394 1397 1400 1403 1405 1407 1409 1411 1412 1413 1413 1414 1414 1413 1412 1411 1410 1408 1406 1403
1327 1330 1334 1338 1341 1344 1348 1351 1355 1359 1363 1367 1370 1374 1378 1382 1386 1389 1392 1395 1398 1400 1403 1406 1408 1409 1411 1412 1412 1413 1413 1412 1411 1410 1408 1407 1405 1403
1325 1327 1331 1334 1337 1341 1344 1348 1352 1356 1360 1363 1367 1371 1375 1379 1383 1387 1390 1393 1396 1399 1402 1404 1406 1408 1410 1411 1413 1412 1412 1411 1410 1409 1408 1406 1404 1402
1322 1325 1328 1331 1335 1338 1342 1346 1350 1354 1357 1361 1365 1369 1373 1377 1381 1385 1388 1392 1395 1398 1401 1403 1405 1407 1408 1409 1411 1412 1411 1410 1409 1408 1407 1405 1403 1402
1320 1322 1325 1329 1332 1336 1340 1344 1348 1351 1355 1359 1363 1367 1371 1375 1379 1383 1387 1390 1394 1397 1400 1402 1405 1406 1407 1409 1410 1411 1411 1410 1409 1408 1406 1405 1403 1402
1317 1320 1323 1326 1330 1334 1338 1342 1346 1349 1353 1357 1361 1365 1370 1374 1378 1382 1386 1390 1393 1396 1399 1401 1404 1406 1408 1409 1409 1410 1410 1410 1409 1408 1406 1404 1403 1401
1315 1318 1321 1325 1328 1332 1336 1340 1344 1347 1351 1355 1359 1364 1368 1373 1376 1380 1384 1388 1392 1395 1398 1401 1404 1406 1407 1408 1408 1409 1410 1410 1409 1408 1407 1405 1404 1402
1313 1316 1319 1323 1327 1331 1335 1339 1342 1345 1349 1353 1358 1362 1367 1371 1376 1380 1384 1388 1391 1395 1398 1400 1403 1405 1407 1408 1409 1409 1409 1410 1409 1408 1408 1406 1405 1403